Location: Limerick
(52.6800°N, 8.6400°W)
Time: 15:17:52
(UTC+00:00)

Sapphire - Visible Passes

Search period start: 24 January 2017 00:00
Search period end: 03 February 2017 00:00
Orbit: 787 x 795 km, 67.1° (Epoch: 23 January)

Date Brightness Start Highest point End Pass type
(mag) Time Alt. Az. Time Alt. Az. Time Alt. Az.
24 Jan ? 04:19:42 16° NNE 04:19:42 16° NNE 04:21:18 10° NNE visible
24 Jan ? 06:00:26 15° NNW 06:02:40 19° N 06:06:31 10° NE visible
24 Jan ? 07:42:33 10° NNW 07:47:36 37° NE 07:52:39 10° ESE visible
25 Jan ? 03:49:48 13° NNE 03:49:48 13° NNE 03:50:33 10° NNE visible
25 Jan ? 05:30:32 17° N 05:31:41 18° N 05:35:26 10° NE visible
25 Jan ? 07:11:53 10° NNW 07:16:46 32° NNE 07:21:38 10° E visible
26 Jan ? 05:00:37 18° N 05:00:43 18° N 05:04:23 10° NE visible
26 Jan ? 06:41:21 10° NNW 06:45:55 28° NNE 06:50:34 10° E visible
27 Jan ? 04:30:43 17° NNE 04:30:43 17° NNE 04:33:23 10° NE visible
27 Jan ? 06:11:27 14° NNW 06:15:01 25° NNE 06:19:29 10° E visible
28 Jan ? 04:00:50 15° NNE 04:00:50 15° NNE 04:02:27 10° NE visible
28 Jan ? 05:41:34 17° NNW 05:44:07 23° NNE 05:48:21 10° ENE visible
28 Jan ? 07:23:17 10° NW 07:28:39 57° NE 07:34:00 10° ESE visible
29 Jan ? 03:30:57 12° NNE 03:30:57 12° NNE 03:31:35 10° NE visible
29 Jan ? 05:11:41 19° N 05:13:10 21° NNE 05:17:13 10° ENE visible
29 Jan ? 06:52:37 10° NNW 06:57:53 47° NE 07:03:08 10° ESE visible
30 Jan ? 04:41:49 19° N 04:42:12 19° NNE 04:46:05 10° ENE visible
30 Jan ? 06:22:32 13° NNW 06:27:06 39° NE 06:32:11 10° ESE visible
31 Jan ? 04:11:58 18° NNE 04:11:58 18° NNE 04:14:59 10° NE visible
31 Jan ? 05:52:41 17° NNW 05:56:16 33° NNE 06:01:11 10° E visible
31 Jan ? 07:34:43 10° NW 07:40:10 73° SW 07:45:34 10° SSE visible
01 Feb ? 03:42:08 15° NNE 03:42:08 15° NNE 03:43:56 10° NE visible
01 Feb ? 05:22:51 20° NNW 05:25:25 29° NNE 05:30:08 10° E visible
01 Feb ? 07:04:02 10° NW 07:09:31 90° NNW 07:14:58 10° SE visible
02 Feb ? 03:12:20 12° NE 03:12:20 12° NE 03:12:56 10° NE visible
02 Feb ? 04:53:04 23° N 04:54:32 26° NNE 04:59:03 10° E visible
02 Feb ? 06:33:47 12° NW 06:38:50 73° NE 06:44:16 10° SE visible
